Regional Weather Roundup
Issued by NWS

Home | Current Version | Previous Version | Text Only | Print | Product List | Glossary Off
Versions: 1 2 3 4 5 6 7 8 9 10 11 12 13 14 15 16 17 18 19 20 21 22 23 24 25 26 27 28 29 30 31 32 33 34 35 36 37 38 39 40 41 42 43 44 45 46 47 48 49 50

000
ASUS43 KLSX 291807
RWRMO

WEATHER SUMMARY FOR MISSOURI
NATIONAL WEATHER SERVICE SPRINGFIELD MO
100 PM CDT FRI MAY 29 2015

NOTE: "FAIR" INDICATES FEW OR NO CLOUDS BELOW 12,000 FEET WITH NO
       SIGNIFICANT WEATHER AND/OR OBSTRUCTIONS TO VISIBILITY.
       CURRENT SKY AND/OR WEATHER CONDITIONS ARE NOT AVAILABLE FOR
       CHILLICOTHE AND FARMINGTON.

MOZ001>031-035>038-043-044-053-054-291900-
...NORTHERN AND WESTERN MISSOURI...

CITY           SKY/WX    TMP DP  RH WIND       PRES   REMARKS
KANSAS CTY INT LGT RAIN  67  66  97 SW6       30.01S
6HR MIN TEMP:  65; 6HR MAX TEMP:  69; 6HR PCP:  0.12;

KANSAS C DTWN  RAIN      70  65  84 S6        30.01R
6HR MIN TEMP:  67; 6HR MAX TEMP:  71; 6HR PCP:  0.05;

LEE`S SUMMIT   LGT RAIN  68  65  90 SW7       30.03R
6HR MIN TEMP:  65; 6HR MAX TEMP:  71; 6HR PCP:  0.20;

ST JOSEPH      LGT RAIN  67  65  93 S10       29.99S FOG
6HR MIN TEMP:  65; 6HR MAX TEMP:  68; 6HR PCP:  0.37;

CHILLICOTHE      N/A     72  64  76 VRB5      30.01R
6HR MIN TEMP:  65; 6HR MAX TEMP:  74;

KIRKSVILLE     CLOUDY    73  67  81 SW7       30.01S
6HR MIN TEMP:  66; 6HR MAX TEMP:  74;


$$
MOZ066>068-077>081-088>096-101>105-291900-
...SOUTHWEST MISSOURI...

CITY           SKY/WX    TMP DP  RH WIND       PRES   REMARKS
SPRINGFIELD    CLOUDY    73  66  78 NE7       30.04F
6HR MIN TEMP:  67; 6HR MAX TEMP:  73; 6HR PCP:  0.55;

JOPLIN         CLOUDY    71  66  84 E9        30.02S
6HR MIN TEMP:  66; 6HR MAX TEMP:  71; 6HR PCP:  0.46;


$$
MOZ032>034-039>042-045>050-055>058-069>072-291900-
...CENTRAL MISSOURI...

CITY           SKY/WX    TMP DP  RH WIND       PRES   REMARKS
COLUMBIA       LGT RAIN  70  66  87 S15       30.06R
6HR MIN TEMP:  65; 6HR MAX TEMP:  72; 6HR PCP: TRACE;

JEFFERSON CITY LGT RAIN  72  66  81 S9        30.05R
6HR MIN TEMP:  67; 6HR MAX TEMP:  73; 6HR PCP: TRACE;

ROLLA          CLOUDY    71  66  84 SW7       30.05F
6HR MIN TEMP:  66; 6HR MAX TEMP:  73; 6HR PCP:  0.02;

SEDALIA        LGT RAIN  70  64  81 SW9       30.04R
6HR MIN TEMP:  66; 6HR MAX TEMP:  72; 6HR PCP:  0.06;

WHITEMAN AFB   LGT RAIN  68  64  88 W8        30.02R
WARRENSBURG    LGT RAIN  68  63  83 SW6       30.02F
OSAGE BEACH    CLOUDY    70  64  83 W3        30.06S

$$
MOZ051-052-059>065-291900-
...EAST CENTRAL MISSOURI...

CITY           SKY/WX    TMP DP  RH WIND       PRES   REMARKS
ST LOUIS INTL  LGT RAIN  80  66  62 SW8       30.03F
6HR MIN TEMP:  73; 6HR MAX TEMP:  83; 6HR PCP: TRACE;

SPIRIT OF STL  MOSUNNY   82  68  62 SW13      30.00F
6HR MIN TEMP:  72; 6HR MAX TEMP:  82;

ST CHARLES     MOSUNNY   82  66  58 W14       30.00F
6HR MIN TEMP:  70; 6HR MAX TEMP:  83;


$$
MOZ072>076-082>087-097>100-106>115-291900-
...SOUTH CENTRAL AND SOUTHEAST MISSOURI...

CITY           SKY/WX    TMP DP  RH WIND       PRES   REMARKS
CAPE GIRARDEAU MOSUNNY   84  69  60 S9        30.06F
6HR MIN TEMP:  68; 6HR MAX TEMP:  84;

FARMINGTON     PTSUNNY   81  66  61 S13       30.08F
6HR MIN TEMP:  66; 6HR MAX TEMP:  81;

POPLAR BLUFF   MOSUNNY   83  68  60 S9        30.04F
6HR MIN TEMP:  68; 6HR MAX TEMP:  83;

WEST PLAINS    MOSUNNY   80  67  64 S12G18    30.06F
6HR MIN TEMP:  66; 6HR MAX TEMP:  81;


$$



USA.gov is the U.S. government's official web portal to all federal, state and local government web resources and services.